Weather History for LEPA - October, 2013

Change the Weather History Date:

Friday, October 11, 2013

  Actual Average Record
Temperature  
Mean Temperature 64 °F -  
Max Temperature 70 °F 70 °F 84 °F (1997)
Min Temperature 58 °F 52 °F 51 °F (1996)
Degree Days  
Heating Degree Days 1    
Growing Degree Days 14 (Base 50)    
Moisture  
Dew Point 57 °F    
Average Humidity 79    
Maximum Humidity 94    
Minimum Humidity 56    
Precipitation  
Precipitation 0.00 in 0.07 in - ()
Sea Level Pressure  
Sea Level Pressure 29.93 in    
Wind  
Wind Speed 6 mph ()    
Max Wind Speed 15 mph    
Max Gust Speed -    
Visibility 6.7 miles    
Events Rain    
Averages and records for this station are not official NWS values.
T = Trace of Precipitation, MM = Missing Value Source: Averaged Metar Reports

Daily Weather History Graph

Daily Weather History Graph

Search for Another Location

Airport or City:

Trip Planner

Search our weather history database for the weather conditions in past years. The results will help you decide how hot, cold, wet, or windy it might be!

Date:

Astronomy

Oct. 11, 2013 Rise Set
Actual Time 7:55 AM CEST 7:15 PM CEST
Civil Twilight 7:28 AM CEST 7:42 PM CEST
Nautical Twilight 6:56 AM CEST 8:13 PM CEST
Astronomical Twilight 6:25 AM CEST 8:45 PM CEST
Moon 2:23 PM CEST (10/11) No Moon Set
Length of Visible Light 12h 14m
Length of Day
11h 20m
Waxing Crescent, 44% of the Moon is Illuminated
Oct 11
Waxing Crescent
Oct 12
First Quarter
Oct 19
Full
Oct 27
Last Quarter
Nov 3
New

Hourly Weather History & Observations

Time (CEST) Temp. Dew Point Humidity Pressure Visibility Wind Dir Wind Speed Gust Speed Precip Events Conditions
12:00 AM 60.8 °F 57.2 °F 88% 29.92 in 6.2 mi Calm Calm - N/A   Partly Cloudy
12:30 AM 59.0 °F 57.2 °F 94% 29.92 in 6.2 mi Calm Calm - N/A   Partly Cloudy
1:00 AM 60.8 °F 57.2 °F 88% 29.92 in 6.2 mi Calm Calm - N/A   Partly Cloudy
1:30 AM 59.0 °F 57.2 °F 94% 29.92 in 6.2 mi Calm Calm - N/A   Partly Cloudy
2:00 AM 58 °F 56 °F 92% 29.92 in 11 mi Calm Calm - -   Mostly Cloudy
2:00 AM 59.0 °F 57.2 °F 94% 29.92 in 6.2 mi Calm Calm - N/A   Scattered Clouds
2:30 AM 62.6 °F 59.0 °F 88% 29.92 in 5.6 mi NW 8.1 mph - N/A Rain Light Rain
3:00 AM 64.4 °F 57.2 °F 77% 29.92 in 6.2 mi NNW 11.5 mph - N/A Rain Light Rain
3:30 AM 64.4 °F 59.0 °F 83% 29.92 in 6.2 mi NE 12.7 mph - N/A   Mostly Cloudy
4:00 AM 62.6 °F 59.0 °F 88% 29.92 in 6.2 mi ENE 15.0 mph - N/A   Mostly Cloudy
4:30 AM 62.6 °F 59.0 °F 88% 29.92 in 6.2 mi ENE 12.7 mph - N/A Rain Light Rain
5:00 AM 62.6 °F 59.0 °F 88% 29.92 in 6.2 mi ENE 10.4 mph - N/A Rain Light Rain
5:30 AM 62.6 °F 59.0 °F 88% 29.92 in 6.2 mi ENE 6.9 mph - N/A   Mostly Cloudy
6:00 AM 60.8 °F 59.0 °F 94% 29.92 in 6.2 mi ENE 9.2 mph - N/A   Mostly Cloudy
6:30 AM 60.8 °F 57.2 °F 88% 29.95 in 6.2 mi ENE 11.5 mph - N/A   Scattered Clouds
7:00 AM 60.8 °F 57.2 °F 88% 29.92 in 6.2 mi ENE 10.4 mph - N/A   Scattered Clouds
7:30 AM 59.0 °F 55.4 °F 88% 29.92 in 6.2 mi East 8.1 mph - N/A   Scattered Clouds
8:00 AM 59 °F 55 °F 83% 29.94 in 12 mi NE 5.8 mph - -   Partly Cloudy
8:00 AM 59.0 °F 55.4 °F 88% 29.92 in 6.2 mi NE 8.1 mph - N/A   Partly Cloudy
8:30 AM 60.8 °F 55.4 °F 82% 29.95 in 6.2 mi ENE 5.8 mph - N/A   Partly Cloudy
9:00 AM 60.8 °F 55.4 °F 82% 29.95 in 6.2 mi ENE 9.2 mph - N/A   Scattered Clouds
9:30 AM 62.6 °F 55.4 °F 77% 29.95 in 6.2 mi ENE 6.9 mph - N/A   Mostly Cloudy
10:00 AM 62.6 °F 55.4 °F 77% 29.95 in 6.2 mi ENE 6.9 mph - N/A   Mostly Cloudy
10:30 AM 64.4 °F 55.4 °F 73% 29.95 in 6.2 mi ENE 6.9 mph - N/A   Mostly Cloudy
11:00 AM 64.4 °F 55.4 °F 73% 29.95 in 6.2 mi ENE 9.2 mph - N/A   Mostly Cloudy
11:30 AM 64.4 °F 55.4 °F 73% 29.95 in 6.2 mi NE 8.1 mph - N/A   Mostly Cloudy
12:00 PM 66.2 °F 57.2 °F 73% 29.95 in 6.2 mi ENE 8.1 mph - N/A   Mostly Cloudy
12:30 PM 66.2 °F 55.4 °F 68% 29.95 in 6.2 mi ENE 6.9 mph - N/A   Mostly Cloudy
1:00 PM 68.0 °F 57.2 °F 68% 29.95 in 6.2 mi NE 5.8 mph - N/A   Mostly Cloudy
1:30 PM 66.2 °F 57.2 °F 73% 29.95 in 6.2 mi NE 8.1 mph - N/A   Mostly Cloudy
2:00 PM 68 °F 56 °F 56% 29.94 in 12 mi NE 9.2 mph - -   Mostly Cloudy
2:00 PM 68.0 °F 57.2 °F 68% 29.92 in 6.2 mi NE 10.4 mph - N/A   Mostly Cloudy
2:30 PM 68.0 °F 57.2 °F 68% 29.92 in 6.2 mi NE 8.1 mph - N/A   Mostly Cloudy
3:00 PM 68.0 °F 57.2 °F 68% 29.92 in 6.2 mi NE 8.1 mph - N/A   Mostly Cloudy
3:30 PM 69.8 °F 57.2 °F 64% 29.89 in 6.2 mi NE 9.2 mph - N/A   Scattered Clouds
4:00 PM 69.8 °F 57.2 °F 64% 29.89 in 6.2 mi ENE 9.2 mph - N/A   Scattered Clouds
4:30 PM 69.8 °F 57.2 °F 64% 29.89 in 6.2 mi NE 12.7 mph - N/A   Scattered Clouds
5:00 PM 68.0 °F 57.2 °F 68% 29.89 in 6.2 mi NE 12.7 mph - N/A   Mostly Cloudy
5:30 PM 68.0 °F 57.2 °F 68% 29.89 in 6.2 mi NE 11.5 mph - N/A   Mostly Cloudy
6:00 PM 68.0 °F 59.0 °F 73% 29.89 in 6.2 mi NE 11.5 mph - N/A   Mostly Cloudy
6:30 PM 66.2 °F 59.0 °F 78% 29.89 in 6.2 mi ENE 11.5 mph - N/A   Mostly Cloudy
7:00 PM 66.2 °F 59.0 °F 78% 29.89 in 6.2 mi NE 12.7 mph - N/A   Mostly Cloudy
7:30 PM 66.2 °F 59.0 °F 78% 29.92 in 6.2 mi NE 10.4 mph - N/A   Scattered Clouds
8:00 PM 65 °F 58 °F 71% 29.93 in 17 mi NE 11.5 mph - -   Mostly Cloudy
8:00 PM 64.4 °F 57.2 °F 77% 29.92 in 6.2 mi NE 10.4 mph - N/A   Scattered Clouds
8:30 PM 64.4 °F 57.2 °F 77% 29.92 in 6.2 mi ENE 9.2 mph - N/A   Scattered Clouds
9:00 PM 64.4 °F 57.2 °F 77% 29.92 in 6.2 mi ENE 9.2 mph - N/A   Scattered Clouds
9:30 PM 64.4 °F 57.2 °F 77% 29.95 in 6.2 mi NE 9.2 mph - N/A   Scattered Clouds
10:00 PM 64.4 °F 57.2 °F 77% 29.95 in 6.2 mi ENE 9.2 mph - N/A   Scattered Clouds
10:30 PM 64.4 °F 57.2 °F 77% 29.95 in 6.2 mi ENE 8.1 mph - N/A   Scattered Clouds
11:00 PM 62.6 °F 57.2 °F 82% 29.95 in 6.2 mi ENE 8.1 mph - N/A   Scattered Clouds
11:30 PM 62.6 °F 57.2 °F 82% 29.98 in 6.2 mi ENE 8.1 mph - N/A   Scattered Clouds